Location: Austin
(30.3000°N, 97.7500°W)
Time: 23:57:18
(UTC-05:00)

Cosmos 1459 Rocket - Pass Details

Date: 06 May 2026
Orbit: 935 x 999 km, 83.0° (Epoch: 13 May)

Event Time Altitude Azimuth Distance (km) Brightness Sun altitude
Exits shadow 21:35:35 22° 149° (SSE) 2,009 5.1 -17.0°
Maximum altitude 21:39:14 43° 90° (E) 1,347 4.3 -17.7°
Drops below altitude 10° 21:45:03 10° 21° (NNE) 2,715 6.5 -18.7°
Sets 21:47:39 0° 15° (NNE) 3,655 7.3 -19.2°
